Time,TemperatureF,DewpointF,PressureIn,WindDirection,WindDirectionDegrees,WindSpeedMPH,WindSpeedGustMPH,Humidity,HourlyPrecipIn,Conditions,Clouds,dailyrainin,SoftwareType,DateUTC
2013-04-07 00:00:00,55.5,44.3,29.80,SSW,202,1.0,4.0,66,0.00,,,0.00,VWS V14.00,2013-04-07 05:00:00,
2013-04-07 00:05:00,55.0,44.7,29.80,SSW,202,1.0,3.0,68,0.00,,,0.00,VWS V14.00,2013-04-07 05:05:00,
2013-04-07 00:10:00,54.7,45.5,29.79,SSW,202,0.0,2.0,71,0.00,,,0.00,VWS V14.00,2013-04-07 05:10:00,
2013-04-07 00:20:00,54.3,45.8,29.80,SSW,202,0.0,0.0,73,0.00,,,0.00,VWS V14.00,2013-04-07 05:20:00,
2013-04-07 00:25:00,54.1,46.0,29.80,SSW,202,0.0,0.0,74,0.00,,,0.00,VWS V14.00,2013-04-07 05:25:00,
2013-04-07 00:35:00,53.7,45.6,29.80,SSW,202,0.0,0.0,74,0.00,,,0.00,VWS V14.00,2013-04-07 05:35:00,
2013-04-07 00:40:00,53.7,45.3,29.80,SSW,202,0.0,0.0,73,0.00,,,0.00,VWS V14.00,2013-04-07 05:40:00,
2013-04-07 00:45:00,53.8,45.4,29.80,SSW,202,0.0,2.0,73,0.00,,,0.00,VWS V14.00,2013-04-07 05:45:00,
2013-04-07 00:55:00,53.8,45.7,29.80,SSW,202,3.0,5.0,74,0.00,,,0.00,VWS V14.00,2013-04-07 05:55:00,
2013-04-07 01:00:00,53.7,45.3,29.80,SSW,202,2.0,3.0,73,0.00,,,0.00,VWS V14.00,2013-04-07 06:00:00,
2013-04-07 01:05:00,53.3,44.9,29.80,SSW,202,3.0,4.0,73,0.00,,,0.00,VWS V14.00,2013-04-07 06:05:00,
2013-04-07 01:10:00,52.9,44.8,29.81,SSW,202,3.0,4.0,74,0.00,,,0.00,VWS V14.00,2013-04-07 06:10:00,
2013-04-07 01:15:00,52.4,44.7,29.81,SSW,202,2.0,3.0,75,0.00,,,0.00,VWS V14.00,2013-04-07 06:15:00,
2013-04-07 01:20:00,52.0,44.3,29.81,SSW,202,1.0,3.0,75,0.00,,,0.00,VWS V14.00,2013-04-07 06:20:00,
2013-04-07 01:50:00,49.9,44.0,29.81,SSW,202,3.0,4.0,80,0.00,,,0.00,VWS V14.00,2013-04-07 06:50:00,
2013-04-07 01:55:00,49.6,43.7,29.81,SSW,202,2.0,3.0,80,0.00,,,0.00,VWS V14.00,2013-04-07 06:55:00,
2013-04-07 02:00:00,49.4,43.8,29.81,SSW,202,3.0,4.0,81,0.00,,,0.00,VWS V14.00,2013-04-07 07:00:00,
2013-04-07 02:05:00,49.1,43.5,29.81,SSW,202,3.0,4.0,81,0.00,,,0.00,VWS V14.00,2013-04-07 07:05:00,
2013-04-07 02:10:00,48.9,43.7,29.81,SSW,202,2.0,4.0,82,0.00,,,0.00,VWS V14.00,2013-04-07 07:10:00,
2013-04-07 02:15:00,48.7,43.1,29.81,SSW,202,0.0,3.0,81,0.00,,,0.00,VWS V14.00,2013-04-07 07:15:00,
2013-04-07 02:20:00,48.4,42.8,29.81,SSW,202,2.0,4.0,81,0.00,,,0.00,VWS V14.00,2013-04-07 07:20:00,
2013-04-07 02:25:00,48.1,42.9,29.81,SSW,202,2.0,3.0,82,0.00,,,0.00,VWS V14.00,2013-04-07 07:25:00,
2013-04-07 02:30:00,47.8,42.9,29.81,SSW,202,1.0,3.0,83,0.00,,,0.00,VWS V14.00,2013-04-07 07:30:00,
2013-04-07 02:35:00,47.5,42.9,29.81,SSW,202,2.0,4.0,84,0.00,,,0.00,VWS V14.00,2013-04-07 07:35:00,
2013-04-07 02:40:00,47.3,42.7,29.81,SSW,202,3.0,4.0,84,0.00,,,0.00,VWS V14.00,2013-04-07 07:40:00,
2013-04-07 02:45:00,47.1,42.8,29.81,SSW,202,2.0,4.0,85,0.00,,,0.00,VWS V14.00,2013-04-07 07:45:00,
2013-04-07 02:50:00,46.9,42.6,29.81,SSW,202,3.0,4.0,85,0.00,,,0.00,VWS V14.00,2013-04-07 07:50:00,
2013-04-07 02:55:00,46.7,42.4,29.81,SSW,202,3.0,4.0,85,0.00,,,0.00,VWS V14.00,2013-04-07 07:55:00,
2013-04-07 03:00:00,46.6,42.6,29.81,SSW,202,1.0,3.0,86,0.00,,,0.00,VWS V14.00,2013-04-07 08:00:00,
2013-04-07 03:05:00,46.4,42.5,29.81,SSW,202,3.0,4.0,86,0.00,,,0.00,VWS V14.00,2013-04-07 08:05:00,
2013-04-07 03:10:00,46.3,42.7,29.81,SSW,202,2.0,3.0,87,0.00,,,0.00,VWS V14.00,2013-04-07 08:10:00,
2013-04-07 03:15:00,46.3,42.7,29.81,SSW,202,2.0,3.0,87,0.00,,,0.00,VWS V14.00,2013-04-07 08:15:00,
2013-04-07 03:25:00,45.9,42.3,29.81,SSW,202,2.0,3.0,87,0.00,,,0.00,VWS V14.00,2013-04-07 08:25:00,
2013-04-07 03:30:00,45.8,42.2,29.81,SSW,202,2.0,3.0,87,0.00,,,0.00,VWS V14.00,2013-04-07 08:30:00,
2013-04-07 03:35:00,45.6,42.0,29.81,SSW,202,1.0,3.0,87,0.00,,,0.00,VWS V14.00,2013-04-07 08:35:00,
2013-04-07 03:40:00,45.5,42.2,29.81,SSW,202,0.0,0.0,88,0.00,,,0.00,VWS V14.00,2013-04-07 08:40:00,
2013-04-07 03:45:00,45.4,42.1,29.81,SSW,202,2.0,3.0,88,0.00,,,0.00,VWS V14.00,2013-04-07 08:45:00,
2013-04-07 03:50:00,45.3,42.0,29.81,SSW,202,0.0,3.0,88,0.00,,,0.00,VWS V14.00,2013-04-07 08:50:00,
2013-04-07 03:55:00,45.3,42.0,29.81,SSW,202,0.0,3.0,88,0.00,,,0.00,VWS V14.00,2013-04-07 08:55:00,
2013-04-07 04:05:00,45.1,41.8,29.80,SSW,202,2.0,5.0,88,0.00,,,0.00,VWS V14.00,2013-04-07 09:05:00,
2013-04-07 04:10:00,45.0,41.7,29.80,SSW,202,5.0,6.0,88,0.00,,,0.00,VWS V14.00,2013-04-07 09:10:00,
2013-04-07 04:15:00,45.8,42.8,29.80,SSW,202,3.0,5.0,89,0.00,,,0.00,VWS V14.00,2013-04-07 09:15:00,
2013-04-07 04:20:00,46.3,42.7,29.80,SSW,202,5.0,7.0,87,0.00,,,0.00,VWS V14.00,2013-04-07 09:20:00,
2013-04-07 04:25:00,46.1,40.3,29.81,SSW,202,3.0,5.0,80,0.00,,,0.00,VWS V14.00,2013-04-07 09:25:00,
2013-04-07 04:30:00,44.5,39.7,29.83,WNW,292,6.0,12.0,83,0.00,,,0.00,VWS V14.00,2013-04-07 09:30:00,
2013-04-07 04:35:00,43.8,40.2,29.83,West,270,6.0,18.0,87,0.00,,,0.00,VWS V14.00,2013-04-07 09:35:00,
2013-04-07 04:40:00,43.8,40.5,29.82,SW,225,4.0,6.0,88,0.00,,,0.00,VWS V14.00,2013-04-07 09:40:00,
2013-04-07 04:45:00,44.6,41.8,29.82,SW,225,3.0,6.0,90,0.00,,,0.00,VWS V14.00,2013-04-07 09:45:00,
2013-04-07 04:50:00,45.3,42.0,29.83,WSW,248,3.0,4.0,88,0.00,,,0.00,VWS V14.00,2013-04-07 09:50:00,
2013-04-07 04:55:00,45.6,41.7,29.83,WSW,248,1.0,3.0,86,0.00,,,0.00,VWS V14.00,2013-04-07 09:55:00,
2013-04-07 05:00:00,45.8,41.9,29.83,WSW,248,2.0,3.0,86,0.00,,,0.00,VWS V14.00,2013-04-07 10:00:00,
2013-04-07 05:05:00,45.9,41.7,29.83,WSW,248,0.0,1.0,85,0.00,,,0.00,VWS V14.00,2013-04-07 10:05:00,
2013-04-07 05:10:00,46.0,41.8,29.83,WSW,248,2.0,3.0,85,0.00,,,0.00,VWS V14.00,2013-04-07 10:10:00,
2013-04-07 05:15:00,46.1,41.8,29.83,WSW,248,1.0,3.0,85,0.00,,,0.00,VWS V14.00,2013-04-07 10:15:00,
2013-04-07 05:20:00,46.1,41.8,29.83,WSW,248,1.0,3.0,85,0.00,,,0.00,VWS V14.00,2013-04-07 10:20:00,
2013-04-07 05:25:00,46.1,41.8,29.83,WSW,248,0.0,3.0,85,0.00,,,0.00,VWS V14.00,2013-04-07 10:25:00,
2013-04-07 05:30:00,45.8,40.9,29.83,WSW,248,0.0,0.0,83,0.00,,,0.00,VWS V14.00,2013-04-07 10:30:00,
2013-04-07 05:35:00,45.4,40.9,29.83,WSW,248,0.0,1.0,84,0.00,,,0.00,VWS V14.00,2013-04-07 10:35:00,
2013-04-07 05:40:00,45.1,40.9,29.83,WSW,248,0.0,0.0,85,0.00,,,0.00,VWS V14.00,2013-04-07 10:40:00,
2013-04-07 05:45:00,45.0,41.1,29.83,WSW,248,0.0,0.0,86,0.00,,,0.00,VWS V14.00,2013-04-07 10:45:00,
2013-04-07 05:50:00,44.7,40.5,29.83,WSW,248,0.0,0.0,85,0.00,,,0.00,VWS V14.00,2013-04-07 10:50:00,
2013-04-07 05:55:00,44.5,40.6,29.83,WSW,248,0.0,0.0,86,0.00,,,0.00,VWS V14.00,2013-04-07 10:55:00,
2013-04-07 06:00:00,44.3,40.4,29.83,WSW,248,0.0,0.0,86,0.00,,,0.00,VWS V14.00,2013-04-07 11:00:00,
2013-04-07 06:05:00,44.2,40.6,29.83,WSW,248,0.0,0.0,87,0.00,,,0.00,VWS V14.00,2013-04-07 11:05:00,
2013-04-07 06:10:00,44.2,40.6,29.83,WSW,248,0.0,0.0,87,0.00,,,0.00,VWS V14.00,2013-04-07 11:10:00,
2013-04-07 06:15:00,44.1,40.5,29.83,WSW,248,0.0,0.0,87,0.00,,,0.00,VWS V14.00,2013-04-07 11:15:00,
2013-04-07 06:25:00,43.9,40.6,29.84,WSW,248,0.0,0.0,88,0.00,,,0.00,VWS V14.00,2013-04-07 11:25:00,
2013-04-07 06:30:00,43.8,40.5,29.84,WSW,248,0.0,0.0,88,0.00,,,0.00,VWS V14.00,2013-04-07 11:30:00,
2013-04-07 06:35:00,43.7,40.4,29.84,WSW,248,0.0,0.0,88,0.00,,,0.00,VWS V14.00,2013-04-07 11:35:00,
2013-04-07 06:49:00,43.7,40.7,29.84,WSW,248,0.0,0.0,89,0.00,,,0.00,VWS V14.00,2013-04-07 11:49:00,
2013-04-07 06:54:00,43.0,39.4,29.84,WSW,241,0.0,0.0,87,0.00,,,0.00,VWS V14.00,2013-04-07 11:54:00,
2013-04-07 06:59:00,42.8,39.5,29.84,WSW,241,0.0,0.0,88,0.00,,,0.00,VWS V14.00,2013-04-07 11:59:00,
2013-04-07 07:04:00,42.6,39.3,29.85,WSW,241,1.0,2.0,88,0.00,,,0.00,VWS V14.00,2013-04-07 12:04:00,
2013-04-07 07:09:00,42.4,39.1,29.85,WSW,241,1.0,2.0,88,0.00,,,0.00,VWS V14.00,2013-04-07 12:09:00,
2013-04-07 07:14:00,42.3,39.3,29.85,WSW,241,0.0,0.0,89,0.00,,,0.00,VWS V14.00,2013-04-07 12:14:00,
2013-04-07 07:19:00,42.3,39.3,29.85,WSW,241,0.0,0.0,89,0.00,,,0.00,VWS V14.00,2013-04-07 12:19:00,
2013-04-07 07:25:00,42.2,39.2,29.85,North,0,0.0,0.0,89,0.00,,,0.00,VWS V14.00,2013-04-07 12:25:00,
2013-04-07 07:30:00,42.3,39.6,29.86,North,0,0.0,0.0,90,0.00,,,0.00,VWS V14.00,2013-04-07 12:30:00,
2013-04-07 07:35:00,42.5,40.1,29.86,North,0,0.0,0.0,91,0.00,,,0.00,VWS V14.00,2013-04-07 12:35:00,
2013-04-07 07:40:00,42.8,40.4,29.86,North,0,0.0,0.0,91,0.00,,,0.00,VWS V14.00,2013-04-07 12:40:00,
2013-04-07 07:45:00,43.1,40.7,29.86,North,0,0.0,0.0,91,0.00,,,0.00,VWS V14.00,2013-04-07 12:45:00,
2013-04-07 07:50:00,43.4,41.0,29.86,North,0,0.0,0.0,91,0.00,,,0.00,VWS V14.00,2013-04-07 12:50:00,
2013-04-07 07:55:00,43.8,41.3,29.86,North,0,0.0,0.0,91,0.00,,,0.00,VWS V14.00,2013-04-07 12:55:00,
2013-04-07 08:00:00,44.3,41.8,29.86,North,0,0.0,0.0,91,0.00,,,0.00,VWS V14.00,2013-04-07 13:00:00,
2013-04-07 08:05:00,44.7,42.2,29.86,North,0,0.0,0.0,91,0.00,,,0.00,VWS V14.00,2013-04-07 13:05:00,
2013-04-07 08:10:00,45.2,42.7,29.86,North,0,0.0,0.0,91,0.00,,,0.00,VWS V14.00,2013-04-07 13:10:00,
2013-04-07 08:15:00,46.0,43.5,29.86,North,0,0.0,0.0,91,0.00,,,0.00,VWS V14.00,2013-04-07 13:15:00,
2013-04-07 08:20:00,47.2,44.7,29.87,North,0,0.0,0.0,91,0.00,,,0.00,VWS V14.00,2013-04-07 13:20:00,
2013-04-07 08:25:00,47.8,43.2,29.87,North,0,0.0,0.0,84,0.00,,,0.00,VWS V14.00,2013-04-07 13:25:00,
2013-04-07 08:30:00,48.0,43.7,29.87,North,0,0.0,0.0,85,0.00,,,0.00,VWS V14.00,2013-04-07 13:30:00,
2013-04-07 08:35:00,48.5,44.2,29.87,North,0,0.0,0.0,85,0.00,,,0.00,VWS V14.00,2013-04-07 13:35:00,
2013-04-07 08:40:00,49.0,44.1,29.87,North,0,0.0,0.0,83,0.00,,,0.00,VWS V14.00,2013-04-07 13:40:00,
2013-04-07 08:45:00,49.8,45.2,29.87,North,0,0.0,0.0,84,0.00,,,0.00,VWS V14.00,2013-04-07 13:45:00,
2013-04-07 08:50:00,50.8,45.8,29.87,North,0,0.0,0.0,83,0.00,,,0.00,VWS V14.00,2013-04-07 13:50:00,
2013-04-07 08:55:00,51.7,46.1,29.87,North,0,0.0,0.0,81,0.00,,,0.00,VWS V14.00,2013-04-07 13:55:00,
2013-04-07 09:00:00,52.7,47.4,29.87,North,0,0.0,0.0,82,0.00,,,0.00,VWS V14.00,2013-04-07 14:00:00,
2013-04-07 09:05:00,53.9,47.9,29.87,WSW,248,0.0,2.0,80,0.00,,,0.00,VWS V14.00,2013-04-07 14:05:00,
2013-04-07 09:10:00,55.4,48.7,29.87,South,180,1.0,3.0,78,0.00,,,0.00,VWS V14.00,2013-04-07 14:10:00,
2013-04-07 09:15:00,57.1,49.3,29.87,South,180,0.0,1.0,75,0.00,,,0.00,VWS V14.00,2013-04-07 14:15:00,
2013-04-07 09:20:00,58.9,49.2,29.87,South,180,3.0,7.0,70,0.00,,,0.00,VWS V14.00,2013-04-07 14:20:00,
2013-04-07 09:25:00,60.2,50.0,29.87,South,180,3.0,6.0,69,0.00,,,0.00,VWS V14.00,2013-04-07 14:25:00,
2013-04-07 09:30:00,61.1,49.3,29.87,SSE,158,4.0,7.0,65,0.00,,,0.00,VWS V14.00,2013-04-07 14:30:00,
2013-04-07 09:37:00,61.1,49.3,29.87,SSE,158,4.0,7.0,65,0.00,,,0.00,VWS V14.00,2013-04-07 14:37:00,
2013-04-07 09:42:00,62.5,51.4,29.87,SSE,158,0.0,3.0,67,0.00,,,0.00,VWS V14.00,2013-04-07 14:42:00,
2013-04-07 09:45:00,62.9,50.5,29.86,SE,144,4.0,6.0,64,0.00,,,0.00,VWS V14.00,2013-04-07 14:45:00,
2013-04-07 09:47:00,63.1,50.7,29.87,South,170,5.0,6.0,64,0.00,,,0.00,VWS V14.00,2013-04-07 14:47:00,
2013-04-07 09:50:00,63.4,51.0,29.87,South,183,1.0,6.0,64,0.00,,,0.00,VWS V14.00,2013-04-07 14:50:00,
2013-04-07 09:52:00,63.6,51.2,29.86,South,177,4.0,5.0,64,0.00,,,0.00,VWS V14.00,2013-04-07 14:52:00,
2013-04-07 09:58:00,64.5,51.2,29.86,SSE,168,1.0,1.0,62,0.00,,,0.00,VWS V14.00,2013-04-07 14:58:00,
2013-04-07 10:03:00,63.9,51.5,29.86,South,180,3.0,6.0,64,0.00,,,0.00,VWS V14.00,2013-04-07 15:03:00,
2013-04-07 10:08:00,65.5,49.9,29.86,SSE,166,3.0,6.0,57,0.00,,,0.00,VWS V14.00,2013-04-07 15:08:00,
2013-04-07 10:14:00,66.2,49.6,29.87,South,184,6.0,9.0,55,0.00,,,0.00,VWS V14.00,2013-04-07 15:14:00,
2013-04-07 10:19:00,66.5,49.8,29.87,SSE,168,0.0,6.0,55,0.00,,,0.00,VWS V14.00,2013-04-07 15:19:00,
2013-04-07 10:24:00,66.5,50.3,29.87,South,183,5.0,7.0,56,0.00,,,0.00,VWS V14.00,2013-04-07 15:24:00,
2013-04-07 10:29:00,66.5,49.8,29.87,SSE,165,4.0,7.0,55,0.00,,,0.00,VWS V14.00,2013-04-07 15:29:00,
2013-04-07 10:34:00,66.3,49.7,29.87,SSE,160,2.0,7.0,55,0.00,,,0.00,VWS V14.00,2013-04-07 15:34:00,
2013-04-07 10:39:00,66.3,50.2,29.87,SSE,164,4.0,6.0,56,0.00,,,0.00,VWS V14.00,2013-04-07 15:39:00,
2013-04-07 10:44:00,66.3,49.7,29.87,SSE,156,0.0,5.0,55,0.00,,,0.00,VWS V14.00,2013-04-07 15:44:00,
2013-04-07 10:49:00,66.6,50.4,29.87,South,170,3.0,5.0,56,0.00,,,0.00,VWS V14.00,2013-04-07 15:49:00,
2013-04-07 10:54:00,66.8,50.1,29.87,SSE,156,0.0,5.0,55,0.00,,,0.00,VWS V14.00,2013-04-07 15:54:00,
2013-04-07 10:59:00,66.9,50.2,29.87,SSE,156,0.0,0.0,55,0.00,,,0.00,VWS V14.00,2013-04-07 15:59:00,
2013-04-07 11:04:00,67.4,50.7,29.87,South,174,0.0,2.0,55,0.00,,,0.00,VWS V14.00,2013-04-07 16:04:00,
2013-04-07 11:09:00,67.7,49.5,29.87,SSE,155,2.0,4.0,52,0.00,,,0.00,VWS V14.00,2013-04-07 16:09:00,
2013-04-07 11:14:00,67.7,50.0,29.87,SSE,154,0.0,4.0,53,0.00,,,0.00,VWS V14.00,2013-04-07 16:14:00,
2013-04-07 11:19:00,68.0,49.7,29.87,SE,138,3.0,3.0,52,0.00,,,0.00,VWS V14.00,2013-04-07 16:19:00,
2013-04-07 11:24:00,68.4,50.1,29.87,SSE,168,6.0,9.0,52,0.00,,,0.00,VWS V14.00,2013-04-07 16:24:00,
2013-04-07 11:29:00,68.9,50.0,29.87,South,174,4.0,6.0,51,0.00,,,0.00,VWS V14.00,2013-04-07 16:29:00,
2013-04-07 11:34:00,69.4,50.0,29.87,SSE,164,4.0,8.0,50,0.00,,,0.00,VWS V14.00,2013-04-07 16:34:00,
2013-04-07 11:39:00,69.5,50.6,29.86,SE,136,2.0,9.0,51,0.00,,,0.00,VWS V14.00,2013-04-07 16:39:00,
2013-04-07 11:44:00,69.9,49.9,29.86,ESE,110,5.0,8.0,49,0.00,,,0.00,VWS V14.00,2013-04-07 16:44:00,
2013-04-07 11:49:00,69.9,49.9,29.86,ESE,103,0.0,7.0,49,0.00,,,0.00,VWS V14.00,2013-04-07 16:49:00,
2013-04-07 11:54:00,69.8,49.2,29.86,ESE,122,4.0,9.0,48,0.00,,,0.00,VWS V14.00,2013-04-07 16:54:00,
2013-04-07 11:59:00,69.7,49.7,29.86,ESE,116,3.0,6.0,49,0.00,,,0.00,VWS V14.00,2013-04-07 16:59:00,
2013-04-07 12:04:00,69.7,50.2,29.85,East,100,3.0,5.0,50,0.00,,,0.00,VWS V14.00,2013-04-07 17:04:00,
2013-04-07 12:09:00,70.0,50.0,29.85,East,98,4.0,9.0,49,0.00,,,0.00,VWS V14.00,2013-04-07 17:09:00,
2013-04-07 12:14:00,70.4,49.8,29.85,SE,140,6.0,6.0,48,0.00,,,0.00,VWS V14.00,2013-04-07 17:14:00,
2013-04-07 12:19:00,70.7,50.1,29.85,SSE,156,3.0,8.0,48,0.00,,,0.00,VWS V14.00,2013-04-07 17:19:00,
2013-04-07 12:24:00,71.2,50.0,29.85,ESE,119,5.0,9.0,47,0.00,,,0.00,VWS V14.00,2013-04-07 17:24:00,
2013-04-07 12:29:00,71.7,49.8,29.85,East,101,3.0,8.0,46,0.00,,,0.00,VWS V14.00,2013-04-07 17:29:00,
2013-04-07 12:34:00,72.0,48.9,29.85,SE,139,8.0,10.0,44,0.00,,,0.00,VWS V14.00,2013-04-07 17:34:00,
2013-04-07 12:39:00,72.1,48.4,29.85,SSE,158,6.0,9.0,43,0.00,,,0.00,VWS V14.00,2013-04-07 17:39:00,
2013-04-07 12:44:00,72.0,47.7,29.85,South,178,6.0,10.0,42,0.00,,,0.00,VWS V14.00,2013-04-07 17:44:00,
2013-04-07 12:49:00,71.9,48.2,29.85,SSE,164,4.0,9.0,43,0.00,,,0.00,VWS V14.00,2013-04-07 17:49:00,
2013-04-07 12:54:00,72.0,47.7,29.84,SSE,158,5.0,9.0,42,0.00,,,0.00,VWS V14.00,2013-04-07 17:54:00,
2013-04-07 12:59:00,72.0,48.3,29.85,SSE,149,5.0,9.0,43,0.00,,,0.00,VWS V14.00,2013-04-07 17:59:00,
2013-04-07 13:04:00,71.8,48.7,29.84,SSE,151,8.0,13.0,44,0.00,,,0.00,VWS V14.00,2013-04-07 18:04:00,
2013-04-07 13:09:00,72.0,48.9,29.84,SSE,164,7.0,12.0,44,0.00,,,0.00,VWS V14.00,2013-04-07 18:09:00,
2013-04-07 13:14:00,72.2,49.7,29.84,South,170,3.0,11.0,45,0.00,,,0.00,VWS V14.00,2013-04-07 18:14:00,
2013-04-07 13:20:00,72.3,49.8,29.84,South,172,2.0,9.0,45,0.00,,,0.00,VWS V14.00,2013-04-07 18:20:00,
2013-04-07 13:25:00,72.3,49.2,29.84,SSE,151,3.0,11.0,44,0.00,,,0.00,VWS V14.00,2013-04-07 18:25:00,
2013-04-07 13:30:00,72.2,49.7,29.84,SSE,155,5.0,12.0,45,0.00,,,0.00,VWS V14.00,2013-04-07 18:30:00,
2013-04-07 13:35:00,72.2,49.1,29.83,SSE,158,0.0,10.0,44,0.00,,,0.00,VWS V14.00,2013-04-07 18:35:00,
2013-04-07 13:40:00,72.5,50.0,29.83,SSE,156,3.0,8.0,45,0.00,,,0.00,VWS V14.00,2013-04-07 18:40:00,
2013-04-07 13:45:00,73.2,50.6,29.83,South,176,7.0,12.0,45,0.00,,,0.00,VWS V14.00,2013-04-07 18:45:00,
2013-04-07 13:50:00,73.5,48.4,29.82,SSE,153,8.0,13.0,41,0.00,,,0.00,VWS V14.00,2013-04-07 18:50:00,
2013-04-07 13:55:00,73.9,49.4,29.82,SE,130,7.0,11.0,42,0.00,,,0.00,VWS V14.00,2013-04-07 18:55:00,
2013-04-07 14:00:00,74.2,49.0,29.81,SE,139,0.0,10.0,41,0.00,,,0.00,VWS V14.00,2013-04-07 19:00:00,
2013-04-07 14:05:00,74.1,48.3,29.81,SSE,158,8.0,12.0,40,0.00,,,0.00,VWS V14.00,2013-04-07 19:05:00,
2013-04-07 14:10:00,74.1,48.9,29.81,SE,138,12.0,12.0,41,0.00,,,0.00,VWS V14.00,2013-04-07 19:10:00,
2013-04-07 14:15:00,74.2,48.3,29.81,SE,131,10.0,14.0,40,0.00,,,0.00,VWS V14.00,2013-04-07 19:15:00,
2013-04-07 14:20:00,74.3,50.4,29.81,South,180,7.0,13.0,43,0.00,,,0.00,VWS V14.00,2013-04-07 19:20:00,
2013-04-07 14:25:00,74.6,50.0,29.80,South,175,11.0,13.0,42,0.00,,,0.00,VWS V14.00,2013-04-07 19:25:00,
2013-04-07 14:30:00,75.1,50.5,29.80,South,172,4.0,13.0,42,0.00,,,0.00,VWS V14.00,2013-04-07 19:30:00,
2013-04-07 14:35:00,75.7,51.0,29.80,SSE,161,4.0,11.0,42,0.00,,,0.00,VWS V14.00,2013-04-07 19:35:00,
2013-04-07 14:40:00,75.5,50.8,29.80,SE,139,8.0,13.0,42,0.00,,,0.00,VWS V14.00,2013-04-07 19:40:00,
2013-04-07 14:45:00,75.5,50.8,29.80,SSE,159,8.0,13.0,42,0.00,,,0.00,VWS V14.00,2013-04-07 19:45:00,
2013-04-07 14:50:00,75.2,51.2,29.79,SSE,153,6.0,13.0,43,0.00,,,0.00,VWS V14.00,2013-04-07 19:50:00,
2013-04-07 14:55:00,74.8,50.2,29.79,South,183,8.0,13.0,42,0.00,,,0.00,VWS V14.00,2013-04-07 19:55:00,
2013-04-07 15:00:00,74.2,50.9,29.79,SSE,165,7.0,11.0,44,0.00,,,0.00,VWS V14.00,2013-04-07 20:00:00,
2013-04-07 15:05:00,73.7,51.1,29.79,SSE,157,6.0,13.0,45,0.00,,,0.00,VWS V14.00,2013-04-07 20:05:00,
2013-04-07 15:10:00,73.7,51.7,29.79,SSE,164,6.0,11.0,46,0.00,,,0.00,VWS V14.00,2013-04-07 20:10:00,
2013-04-07 15:15:00,73.9,52.4,29.78,South,181,7.0,12.0,47,0.00,,,0.00,VWS V14.00,2013-04-07 20:15:00,
2013-04-07 15:20:00,73.8,51.8,29.78,South,189,6.0,12.0,46,0.00,,,0.00,VWS V14.00,2013-04-07 20:20:00,
2013-04-07 15:25:00,73.5,50.9,29.78,South,189,1.0,12.0,45,0.00,,,0.00,VWS V14.00,2013-04-07 20:25:00,
2013-04-07 15:30:00,73.4,50.8,29.77,South,183,5.0,11.0,45,0.00,,,0.00,VWS V14.00,2013-04-07 20:30:00,
2013-04-07 15:35:00,73.4,51.4,29.77,South,169,10.0,10.0,46,0.00,,,0.00,VWS V14.00,2013-04-07 20:35:00,
2013-04-07 15:40:00,73.8,51.8,29.77,SSE,159,9.0,10.0,46,0.00,,,0.00,VWS V14.00,2013-04-07 20:40:00,
2013-04-07 15:45:00,73.8,50.5,29.77,SSE,153,3.0,11.0,44,0.00,,,0.00,VWS V14.00,2013-04-07 20:45:00,
2013-04-07 15:50:00,73.5,50.3,29.77,SSW,202,2.0,11.0,44,0.00,,,0.00,VWS V14.00,2013-04-07 20:50:00,
2013-04-07 15:55:00,73.2,50.0,29.76,SE,137,2.0,7.0,44,0.00,,,0.00,VWS V14.00,2013-04-07 20:55:00,
2013-04-07 16:00:00,73.0,50.4,29.76,South,177,3.0,4.0,45,0.00,,,0.00,VWS V14.00,2013-04-07 21:00:00,
2013-04-07 16:05:00,72.7,50.8,29.76,South,180,0.0,3.0,46,0.00,,,0.00,VWS V14.00,2013-04-07 21:05:00,
2013-04-07 16:10:00,72.5,50.6,29.75,SSE,159,0.0,0.0,46,0.00,,,0.00,VWS V14.00,2013-04-07 21:10:00,
2013-04-07 16:15:00,72.4,50.5,29.76,SSE,156,6.0,6.0,46,0.00,,,0.00,VWS V14.00,2013-04-07 21:15:00,
2013-04-07 16:20:00,72.3,50.4,29.76,SSE,162,4.0,4.0,46,0.00,,,0.00,VWS V14.00,2013-04-07 21:20:00,
2013-04-07 16:25:00,72.1,51.3,29.76,South,178,1.0,2.0,48,0.00,,,0.00,VWS V14.00,2013-04-07 21:25:00,
2013-04-07 16:30:00,71.8,51.1,29.76,South,175,0.0,2.0,48,0.00,,,0.00,VWS V14.00,2013-04-07 21:30:00,
2013-04-07 16:35:00,71.6,51.5,29.76,South,171,4.0,4.0,49,0.00,,,0.00,VWS V14.00,2013-04-07 21:35:00,
2013-04-07 16:40:00,71.3,51.2,29.76,SSE,166,3.0,4.0,49,0.00,,,0.00,VWS V14.00,2013-04-07 21:40:00,
2013-04-07 16:45:00,71.0,51.5,29.77,South,174,3.0,3.0,50,0.00,,,0.00,VWS V14.00,2013-04-07 21:45:00,
2013-04-07 16:50:00,70.6,52.1,29.77,South,176,4.0,5.0,52,0.00,,,0.00,VWS V14.00,2013-04-07 21:50:00,
2013-04-07 16:55:00,70.4,52.0,29.77,South,174,4.0,4.0,52,0.00,,,0.00,VWS V14.00,2013-04-07 21:55:00,
2013-04-07 17:00:00,70.3,52.4,29.77,SSE,160,5.0,7.0,53,0.00,,,0.00,VWS V14.00,2013-04-07 22:00:00,
2013-04-07 17:05:00,70.2,52.8,29.76,SSE,166,3.0,4.0,54,0.00,,,0.00,VWS V14.00,2013-04-07 22:05:00,
2013-04-07 17:10:00,70.0,52.6,29.75,SE,139,1.0,1.0,54,0.00,,,0.00,VWS V14.00,2013-04-07 22:10:00,
2013-04-07 17:15:00,69.9,52.5,29.75,SE,143,5.0,5.0,54,0.00,,,0.00,VWS V14.00,2013-04-07 22:15:00,
2013-04-07 17:20:00,69.8,52.9,29.75,SE,138,0.0,1.0,55,0.00,,,0.00,VWS V14.00,2013-04-07 22:20:00,
2013-04-07 17:25:00,69.6,52.7,29.75,SSE,168,0.0,0.0,55,0.00,,,0.00,VWS V14.00,2013-04-07 22:25:00,
2013-04-07 17:30:00,69.5,53.1,29.75,SE,139,1.0,2.0,56,0.00,,,0.00,VWS V14.00,2013-04-07 22:30:00,
2013-04-07 17:35:00,69.3,53.0,29.75,SE,131,2.0,3.0,56,0.00,,,0.00,VWS V14.00,2013-04-07 22:35:00,
2013-04-07 17:40:00,69.0,53.2,29.75,ESE,121,6.0,7.0,57,0.00,,,0.00,VWS V14.00,2013-04-07 22:40:00,
2013-04-07 17:45:00,68.6,54.6,29.73,ESE,104,7.0,11.0,61,0.00,,,0.00,VWS V14.00,2013-04-07 22:45:00,
2013-04-07 17:50:00,67.9,52.1,29.72,East,95,9.0,10.0,57,0.00,,,0.00,VWS V14.00,2013-04-07 22:50:00,
2013-04-07 17:56:00,67.6,53.7,29.72,ESE,110,0.0,0.0,61,0.00,,,0.00,VWS V14.00,2013-04-07 22:56:00,
2013-04-07 18:01:00,67.3,54.7,29.72,ESE,110,0.0,2.0,64,0.00,,,0.00,VWS V14.00,2013-04-07 23:01:00,
2013-04-07 18:06:00,66.9,53.9,29.71,East,101,0.0,7.0,63,0.00,,,0.00,VWS V14.00,2013-04-07 23:06:00,
2013-04-07 18:11:00,66.7,51.9,29.71,ESE,106,1.0,9.0,59,0.00,,,0.00,VWS V14.00,2013-04-07 23:11:00,
2013-04-07 18:16:00,66.6,51.8,29.72,SE,141,5.0,9.0,59,0.00,,,0.00,VWS V14.00,2013-04-07 23:16:00,
2013-04-07 18:21:00,66.6,51.4,29.73,ESE,110,3.0,6.0,58,0.00,,,0.00,VWS V14.00,2013-04-07 23:21:00,
2013-04-07 18:26:00,66.8,51.1,29.73,SSE,162,4.0,7.0,57,0.00,,,0.00,VWS V14.00,2013-04-07 23:26:00,
2013-04-07 18:31:00,66.8,52.0,29.71,ESE,121,5.0,8.0,59,0.00,,,0.00,VWS V14.00,2013-04-07 23:31:00,
2013-04-07 18:36:00,66.5,50.8,29.70,SSE,147,3.0,12.0,57,0.00,,,0.00,VWS V14.00,2013-04-07 23:36:00,
2013-04-07 18:41:00,65.9,49.3,29.71,ESE,110,9.0,12.0,55,0.00,,,0.00,VWS V14.00,2013-04-07 23:41:00,
2013-04-07 18:46:00,65.5,47.9,29.71,SE,133,9.0,14.0,53,0.00,,,0.00,VWS V14.00,2013-04-07 23:46:00,
2013-04-07 18:51:00,65.3,49.2,29.71,SE,127,7.0,11.0,56,0.00,,,0.00,VWS V14.00,2013-04-07 23:51:00,
2013-04-07 18:57:00,65.0,48.5,29.70,ESE,110,9.0,13.0,55,0.00,,,0.00,VWS V14.00,2013-04-07 23:57:00,
2013-04-07 19:02:00,65.0,48.9,29.70,ESE,117,5.0,9.0,56,0.00,,,0.00,VWS V14.00,2013-04-08 00:02:00,
2013-04-07 19:07:00,64.9,49.3,29.70,SE,124,6.0,13.0,57,0.00,,,0.00,VWS V14.00,2013-04-08 00:07:00,
2013-04-07 19:12:00,64.9,48.8,29.70,SE,126,4.0,11.0,56,0.00,,,0.00,VWS V14.00,2013-04-08 00:12:00,
2013-04-07 19:17:00,64.9,49.3,29.70,East,98,4.0,9.0,57,0.00,,,0.00,VWS V14.00,2013-04-08 00:17:00,
2013-04-07 19:22:00,64.9,48.8,29.70,ESE,110,3.0,11.0,56,0.00,,,0.00,VWS V14.00,2013-04-08 00:22:00,
2013-04-07 19:27:00,64.9,48.8,29.69,ESE,121,8.0,9.0,56,0.00,,,0.00,VWS V14.00,2013-04-08 00:27:00,
2013-04-07 19:32:00,64.8,49.2,29.69,East,92,3.0,11.0,57,0.00,,,0.00,VWS V14.00,2013-04-08 00:32:00,
2013-04-07 19:37:00,64.7,50.1,29.68,ESE,107,6.0,14.0,59,0.00,,,0.00,VWS V14.00,2013-04-08 00:37:00,
2013-04-07 19:42:00,64.6,50.4,29.67,SSE,150,7.0,13.0,60,0.00,,,0.00,VWS V14.00,2013-04-08 00:42:00,
2013-04-07 19:47:00,64.4,51.1,29.67,East,99,4.0,12.0,62,0.00,,,0.00,VWS V14.00,2013-04-08 00:47:00,
2013-04-07 19:52:00,64.2,52.2,29.66,SE,141,3.0,13.0,65,0.00,,,0.00,VWS V14.00,2013-04-08 00:52:00,
2013-04-07 19:57:00,64.0,52.4,29.66,SE,138,7.0,14.0,66,0.00,,,0.00,VWS V14.00,2013-04-08 00:57:00,
2013-04-07 20:02:00,63.8,52.7,29.66,ESE,120,6.0,14.0,67,0.00,,,0.00,VWS V14.00,2013-04-08 01:02:00,
2013-04-07 20:07:00,63.6,52.5,29.67,ESE,118,5.0,11.0,67,0.00,,,0.00,VWS V14.00,2013-04-08 01:07:00,
2013-04-07 20:12:00,63.4,52.3,29.66,SE,128,7.0,13.0,67,0.00,,,0.00,VWS V14.00,2013-04-08 01:12:00,
2013-04-07 20:17:00,63.3,51.8,29.66,SE,127,2.0,11.0,66,0.00,,,0.00,VWS V14.00,2013-04-08 01:17:00,
2013-04-07 20:22:00,63.1,51.2,29.67,South,177,4.0,11.0,65,0.00,,,0.00,VWS V14.00,2013-04-08 01:22:00,
2013-04-07 20:27:00,63.1,51.2,29.68,South,178,7.0,7.0,65,0.00,,,0.00,VWS V14.00,2013-04-08 01:27:00,
2013-04-07 20:32:00,63.1,50.7,29.69,South,172,8.0,10.0,64,0.00,,,0.00,VWS V14.00,2013-04-08 01:32:00,
2013-04-07 20:37:00,63.2,51.7,29.69,SSE,164,2.0,9.0,66,0.00,,,0.00,VWS V14.00,2013-04-08 01:37:00,
2013-04-07 20:42:00,63.0,51.9,29.68,SSE,147,5.0,7.0,67,0.00,,,0.00,VWS V14.00,2013-04-08 01:42:00,
2013-04-07 20:47:00,62.7,52.0,29.68,SE,131,5.0,5.0,68,0.00,,,0.00,VWS V14.00,2013-04-08 01:47:00,
2013-04-07 20:52:00,62.5,51.8,29.69,SSE,149,0.0,4.0,68,0.00,,,0.00,VWS V14.00,2013-04-08 01:52:00,
2013-04-07 20:57:00,62.2,52.7,29.68,SE,137,3.0,9.0,71,0.01,,,0.01,VWS V14.00,2013-04-08 01:57:00,
2013-04-07 21:02:00,61.6,52.5,29.67,ESE,120,11.0,17.0,72,0.01,,,0.01,VWS V14.00,2013-04-08 02:02:00,
2013-04-07 21:05:00,61.3,52.6,29.67,East,90,11.0,18.0,73,0.01,,,0.01,VWS V14.00,2013-04-08 02:05:00,
2013-04-07 21:10:00,61.0,52.7,29.67,ESE,112,10.0,15.0,74,0.01,,,0.01,VWS V14.00,2013-04-08 02:10:00,
2013-04-07 21:15:00,60.9,52.9,29.67,ESE,112,7.0,13.0,75,0.01,,,0.01,VWS V14.00,2013-04-08 02:15:00,
2013-04-07 21:20:00,60.7,53.1,29.67,ESE,112,5.0,12.0,76,0.01,,,0.01,VWS V14.00,2013-04-08 02:20:00,
2013-04-07 21:25:00,60.5,52.5,29.68,ESE,112,5.0,8.0,75,0.01,,,0.01,VWS V14.00,2013-04-08 02:25:00,
2013-04-07 21:30:00,60.5,52.5,29.68,ESE,112,1.0,4.0,75,0.01,,,0.01,VWS V14.00,2013-04-08 02:30:00,
2013-04-07 21:35:00,60.5,52.5,29.69,SE,135,1.0,5.0,75,0.01,,,0.01,VWS V14.00,2013-04-08 02:35:00,
2013-04-07 21:45:00,60.7,52.7,29.68,SE,135,5.0,11.0,75,0.01,,,0.01,VWS V14.00,2013-04-08 02:45:00,
2013-04-07 21:50:00,60.8,52.8,29.68,SE,135,6.0,13.0,75,0.01,,,0.01,VWS V14.00,2013-04-08 02:50:00,
2013-04-07 21:55:00,60.8,52.8,29.69,SSE,158,6.0,13.0,75,0.01,,,0.01,VWS V14.00,2013-04-08 02:55:00,
2013-04-07 22:00:00,60.5,54.0,29.69,SSE,158,8.0,14.0,79,0.05,,,0.06,VWS V14.00,2013-04-08 03:00:00,
2013-04-07 22:05:00,59.8,54.0,29.69,SSE,158,5.0,10.0,81,0.07,,,0.08,VWS V14.00,2013-04-08 03:05:00,
2013-04-07 22:10:00,59.3,54.2,29.69,SE,135,7.0,13.0,83,0.07,,,0.08,VWS V14.00,2013-04-08 03:10:00,
2013-04-07 22:15:00,59.1,54.3,29.69,SSE,158,6.0,11.0,84,0.07,,,0.08,VWS V14.00,2013-04-08 03:15:00,
2013-04-07 22:20:00,59.0,54.2,29.70,SSE,158,4.0,10.0,84,0.07,,,0.08,VWS V14.00,2013-04-08 03:20:00,
2013-04-07 22:25:00,59.1,54.3,29.70,SE,135,7.0,15.0,84,0.07,,,0.08,VWS V14.00,2013-04-08 03:25:00,
2013-04-07 22:30:00,59.4,54.2,29.70,SSE,158,6.0,10.0,83,0.07,,,0.08,VWS V14.00,2013-04-08 03:30:00,
2013-04-07 22:35:00,59.6,54.4,29.70,SSE,158,8.0,15.0,83,0.07,,,0.08,VWS V14.00,2013-04-08 03:35:00,
2013-04-07 22:40:00,59.6,54.8,29.70,South,180,5.0,11.0,84,0.07,,,0.08,VWS V14.00,2013-04-08 03:40:00,
2013-04-07 22:45:00,59.7,54.9,29.71,South,180,6.0,11.0,84,0.07,,,0.08,VWS V14.00,2013-04-08 03:45:00,
2013-04-07 22:50:00,59.6,54.8,29.71,South,180,1.0,10.0,84,0.07,,,0.08,VWS V14.00,2013-04-08 03:50:00,
2013-04-07 22:55:00,59.6,55.1,29.71,South,180,4.0,8.0,85,0.07,,,0.08,VWS V14.00,2013-04-08 03:55:00,
2013-04-07 23:05:00,59.5,55.0,29.71,South,180,4.0,8.0,85,0.02,,,0.08,VWS V14.00,2013-04-08 04:05:00,
2013-04-07 23:10:00,59.5,55.0,29.71,South,180,4.0,7.0,85,0.00,,,0.08,VWS V14.00,2013-04-08 04:10:00,
2013-04-07 23:15:00,59.5,55.3,29.71,South,180,3.0,7.0,86,0.00,,,0.08,VWS V14.00,2013-04-08 04:15:00,
2013-04-07 23:20:00,59.4,55.2,29.70,South,180,4.0,8.0,86,0.00,,,0.08,VWS V14.00,2013-04-08 04:20:00,
2013-04-07 23:30:00,59.6,55.1,29.70,South,180,5.0,11.0,85,0.00,,,0.08,VWS V14.00,2013-04-08 04:30:00,
2013-04-07 23:35:00,59.5,55.0,29.69,South,180,6.0,11.0,85,0.00,,,0.08,VWS V14.00,2013-04-08 04:35:00,
2013-04-07 23:40:00,59.5,55.0,29.68,SSE,158,7.0,14.0,85,0.00,,,0.08,VWS V14.00,2013-04-08 04:40:00,
2013-04-07 23:45:00,59.4,55.2,29.69,South,180,6.0,11.0,86,0.00,,,0.08,VWS V14.00,2013-04-08 04:45:00,
2013-04-07 23:50:00,59.4,55.2,29.69,South,180,6.0,11.0,86,0.00,,,0.08,VWS V14.00,2013-04-08 04:50:00,
2013-04-07 23:55:00,59.4,54.9,29.69,South,180,5.0,8.0,85,0.00,,,0.08,VWS V14.00,2013-04-08 04:55:00,